| time (UTC) | temp F | wind direction | speed MPH | gust MPH | rain 1hr in | rain 24hr in | rain mn in | humidity % | barometer mb |
| 20260903233036 | 63 | 360 | 1.0 | 6.0 | 0.00 | 0.20 | 0.20 | 98 | 1014.4 |
| 20260903232518 | 63 | 0 | 0.0 | 6.0 | 0.00 | 0.20 | 0.20 | 98 | 1014.2 |
| 20260903232017 | 63 | 360 | 1.0 | 6.0 | 0.00 | 0.20 | 0.20 | 98 | 1014.3 |
| 20260903231536 | 63 | 0 | 1.0 | 4.0 | 0.00 | 0.20 | 0.20 | 98 | 1014.6 |
| 20260903231017 | 64 | 0 | 0.0 | 4.0 | 0.00 | 0.20 | 0.20 | 98 | 1014.8 |
| 20260903230521 | 64 | 360 | 0.0 | 4.0 | 0.00 | 0.20 | 0.20 | 98 | 1014.8 |
| 20260903230041 | 64 | 0 | 0.0 | 0.0 | 0.00 | 0.20 | 0.20 | 98 | 1014.9 |
| 20260903225518 | 64 | 0 | 0.0 | 0.0 | 0.00 | 0.20 | 0.20 | 98 | 1014.9 |
| 20260903225019 | 64 | 0 | 0.0 | 0.0 | 0.00 | 0.20 | 0.20 | 98 | 1014.9 |
| 20260903224551 | 64 | 0 | 0.0 | 0.0 | 0.00 | 0.20 | 0.20 | 98 | 1014.6 |
| 20260903224018 | 64 | 0 | 0.0 | 0.0 | 0.00 | 0.20 | 0.20 | 98 | 1014.5 |
| 20260903223517 | 64 | 0 | 0.0 | 0.0 | 0.00 | 0.20 | 0.20 | 98 | 1014.6 |
| 20260903223034 | 64 | 0 | 0.0 | 0.0 | 0.00 | 0.20 | 0.20 | 98 | 1014.9 |
| 20260903222520 | 64 | 0 | 0.0 | 0.0 | 0.00 | 0.20 | 0.20 | 98 | 1014.7 |
| 20260903222016 | 64 | 0 | 0.0 | 0.0 | 0.00 | 0.20 | 0.20 | 98 | 1014.8 |
| 20260903221536 | 64 | 0 | 0.0 | 0.0 | 0.00 | 0.20 | 0.20 | 98 | 1014.9 |
| 20260903221021 | 64 | 0 | 0.0 | 0.0 | 0.00 | 0.20 | 0.20 | 98 | 1014.9 |
| 20260903220518 | 64 | 0 | 0.0 | 0.0 | 0.00 | 0.20 | 0.20 | 97 | 1014.9 |
| 20260903220043 | 64 | 0 | 0.0 | 0.0 | 0.00 | 0.20 | 0.20 | 97 | 1014.9 |
| 20260903215521 | 64 | 0 | 0.0 | 0.0 | 0.00 | 0.20 | 0.20 | 97 | 1015.0 |
| 20260903215018 | 64 | 0 | 0.0 | 0.0 | 0.00 | 0.20 | 0.20 | 97 | 1014.9 |
| 20260903214540 | 64 | 0 | 0.0 | 0.0 | 0.00 | 0.20 | 0.20 | 98 | 1014.9 |
| 20260903214018 | 64 | 0 | 0.0 | 0.0 | 0.00 | 0.20 | 0.20 | 97 | 1014.9 |
| 20260903213517 | 64 | 0 | 0.0 | 0.0 | 0.00 | 0.20 | 0.20 | 97 | 1015.0 |
| 20260903213039 | 64 | 0 | 0.0 | 0.0 | 0.00 | 0.20 | 0.20 | 97 | 1015.0 |
| 20260903212521 | 65 | 0 | 0.0 | 0.0 | 0.00 | 0.20 | 0.20 | 97 | 1015.0 |
| 20260903212018 | 65 | 0 | 0.0 | 0.0 | 0.00 | 0.20 | 0.20 | 97 | 1015.0 |
| 20260903211541 | 65 | 0 | 0.0 | 0.0 | 0.00 | 0.20 | 0.20 | 97 | 1014.9 |
| 20260903211019 | 65 | 0 | 0.0 | 0.0 | 0.00 | 0.20 | 0.20 | 97 | 1014.9 |
| 20260903210521 | 65 | 0 | 0.0 | 0.0 | 0.00 | 0.20 | 0.20 | 97 | 1014.9 |
| 20260903210043 | 65 | 0 | 0.0 | 0.0 | 0.00 | 0.20 | 0.20 | 97 | 1014.8 |
| 20260903205520 | 65 | 0 | 0.0 | 0.0 | 0.00 | 0.20 | 0.20 | 97 | 1014.9 |
| 20260903205020 | 65 | 0 | 0.0 | 0.0 | 0.00 | 0.20 | 0.20 | 97 | 1014.9 |
| 20260903204546 | 65 | 0 | 0.0 | 0.0 | 0.00 | 0.20 | 0.20 | 98 | 1015.0 |
| 20260903204017 | 65 | 0 | 0.0 | 0.0 | 0.00 | 0.20 | 0.20 | 98 | 1015.0 |
| 20260903203517 | 65 | 0 | 0.0 | 0.0 | 0.00 | 0.20 | 0.20 | 98 | 1015.0 |
| 20260903203036 | 65 | 0 | 0.0 | 0.0 | 0.00 | 0.20 | 0.20 | 98 | 1015.1 |
| 20260903202520 | 64 | 0 | 0.0 | 1.0 | 0.00 | 0.20 | 0.20 | 98 | 1015.0 |
| 20260903202020 | 64 | 0 | 0.0 | 3.0 | 0.00 | 0.20 | 0.20 | 98 | 1015.1 |
| 20260903201543 | 64 | 0 | 0.0 | 3.0 | 0.00 | 0.20 | 0.20 | 98 | 1015.1 |
| 20260903201019 | 64 | 0 | 0.0 | 2.0 | 0.00 | 0.20 | 0.20 | 98 | 1015.0 |
| 20260903200517 | 64 | 360 | 0.0 | 2.0 | 0.00 | 0.20 | 0.20 | 98 | 1015.1 |
| 20260903200034 | 64 | 0 | 0.0 | 2.0 | 0.00 | 0.20 | 0.20 | 98 | 1015.1 |
| 20260903195517 | 64 | 0 | 0.0 | 3.0 | 0.00 | 0.20 | 0.20 | 98 | 1015.2 |
| 20260903195016 | 64 | 0 | 0.0 | 3.0 | 0.00 | 0.20 | 0.20 | 98 | 1015.3 |
| 20260903194536 | 64 | 360 | 0.0 | 3.0 | 0.00 | 0.20 | 0.20 | 98 | 1015.3 |
| 20260903194020 | 64 | 0 | 0.0 | 1.0 | 0.00 | 0.20 | 0.20 | 98 | 1015.2 |
| 20260903193519 | 64 | 0 | 0.0 | 1.0 | 0.00 | 0.20 | 0.20 | 98 | 1015.3 |
| 20260903193038 | 64 | 0 | 0.0 | 1.0 | 0.00 | 0.20 | 0.20 | 98 | 1015.3 |
| 20260903192516 | 64 | 0 | 0.0 | 2.0 | 0.00 | 0.20 | 0.20 | 98 | 1015.4 |
| 20260903192017 | 64 | 0 | 0.0 | 3.0 | 0.00 | 0.20 | 0.20 | 98 | 1015.4 |
| 20260903191540 | 64 | 0 | 0.0 | 4.0 | 0.00 | 0.20 | 0.20 | 98 | 1015.4 |
| 20260903191018 | 64 | 0 | 0.0 | 4.0 | 0.00 | 0.20 | 0.20 | 98 | 1015.5 |
| 20260903190518 | 64 | 360 | 1.0 | 4.0 | 0.00 | 0.20 | 0.20 | 98 | 1015.5 |
| 20260903190035 | 64 | 0 | 0.0 | 2.0 | 0.00 | 0.20 | 0.20 | 98 | 1015.6 |
| 20260903185520 | 64 | 0 | 0.0 | 0.0 | 0.00 | 0.20 | 0.20 | 98 | 1015.7 |
| 20260903185019 | 64 | 0 | 0.0 | 0.0 | 0.00 | 0.20 | 0.20 | 98 | 1015.7 |
| 20260903184538 | 64 | 0 | 0.0 | 0.0 | 0.00 | 0.20 | 0.20 | 98 | 1015.8 |
| 20260903184021 | 64 | 0 | 0.0 | 2.0 | 0.00 | 0.20 | 0.20 | 98 | 1015.8 |
| 20260903183521 | 64 | 0 | 0.0 | 2.0 | 0.00 | 0.20 | 0.20 | 98 | 1015.9 |
| 20260903183036 | 63 | 360 | 0.0 | 0.0 | 0.00 | 0.20 | 0.20 | 98 | 1015.8 |
| 20260903182517 | 63 | 0 | 0.0 | 2.0 | 0.00 | 0.20 | 0.20 | 98 | 1015.9 |
| 20260903182018 | 63 | 0 | 0.0 | 2.0 | 0.00 | 0.20 | 0.20 | 98 | 1016.1 |
| 20260903181535 | 64 | 360 | 0.0 | 2.0 | 0.00 | 0.20 | 0.20 | 98 | 1016.0 |
| 20260903181018 | 64 | 0 | 0.0 | 0.0 | 0.00 | 0.20 | 0.20 | 98 | 1016.1 |
| 20260903180518 | 63 | 0 | 0.0 | 3.0 | 0.00 | 0.20 | 0.20 | 98 | 1016.0 |
| 20260903180041 | 63 | 0 | 0.0 | 3.0 | 0.00 | 0.20 | 0.20 | 98 | 1016.1 |
| 20260903175515 | 63 | 0 | 0.0 | 4.0 | 0.00 | 0.20 | 0.20 | 98 | 1016.1 |
| 20260903175019 | 63 | 360 | 1.0 | 4.0 | 0.00 | 0.20 | 0.20 | 98 | 1016.1 |
| 20260903174539 | 63 | 0 | 0.0 | 4.0 | 0.00 | 0.20 | 0.20 | 98 | 1016.2 |
| 20260903174021 | 63 | 0 | 0.0 | 4.0 | 0.00 | 0.20 | 0.20 | 98 | 1016.1 |
| 20260903173521 | 63 | 0 | 0.0 | 5.0 | 0.00 | 0.20 | 0.20 | 98 | 1016.1 |
| 20260903173036 | 63 | 360 | 1.0 | 6.0 | 0.00 | 0.20 | 0.20 | 98 | 1016.0 |
| 20260903172519 | 64 | 360 | 2.0 | 6.0 | 0.00 | 0.20 | 0.20 | 98 | 1015.9 |
| 20260903172018 | 64 | 0 | 0.0 | 3.0 | 0.00 | 0.20 | 0.20 | 98 | 1016.0 |
| 20260903171540 | 63 | 360 | 0.0 | 4.0 | 0.00 | 0.20 | 0.20 | 98 | 1016.0 |
| 20260903171018 | 63 | 0 | 0.0 | 4.0 | 0.00 | 0.20 | 0.20 | 98 | 1016.0 |
| 20260903170518 | 63 | 360 | 0.0 | 4.0 | 0.00 | 0.20 | 0.20 | 98 | 1016.0 |
| 20260903170038 | 64 | 360 | 0.0 | 5.0 | 0.00 | 0.20 | 0.20 | 98 | 1016.0 |
| 20260903165521 | 64 | 360 | 1.0 | 5.0 | 0.00 | 0.20 | 0.20 | 98 | 1015.9 |
| 20260903165020 | 63 | 0 | 0.0 | 3.0 | 0.00 | 0.20 | 0.20 | 99 | 1016.2 |
| 20260903164541 | 63 | 0 | 0.0 | 3.0 | 0.00 | 0.20 | 0.20 | 98 | 1016.2 |
| 20260903164022 | 63 | 0 | 0.0 | 5.0 | 0.00 | 0.20 | 0.20 | 98 | 1016.2 |
| 20260903163520 | 63 | 0 | 0.0 | 5.0 | 0.00 | 0.20 | 0.20 | 98 | 1016.2 |
| 20260903163040 | 63 | 360 | 1.0 | 4.0 | 0.00 | 0.20 | 0.20 | 99 | 1016.2 |
| 20260903162518 | 63 | 0 | 0.0 | 5.0 | 0.00 | 0.20 | 0.20 | 99 | 1016.3 |
| 20260903162018 | 63 | 0 | 0.0 | 6.0 | 0.00 | 0.20 | 0.20 | 98 | 1016.4 |
| 20260903161538 | 63 | 360 | 2.0 | 6.0 | 0.00 | 0.20 | 0.20 | 98 | 1016.3 |
| 20260903161018 | 63 | 360 | 1.0 | 5.0 | 0.00 | 0.20 | 0.20 | 98 | 1016.4 |
| 20260903160518 | 63 | 0 | 0.0 | 5.0 | 0.00 | 0.20 | 0.20 | 98 | 1016.5 |
| 20260903160038 | 63 | 360 | 1.0 | 4.0 | 0.00 | 0.20 | 0.20 | 99 | 1016.6 |
| 20260903155517 | 63 | 360 | 0.0 | 3.0 | 0.00 | 0.20 | 0.20 | 98 | 1016.7 |
| 20260903155020 | 63 | 0 | 0.0 | 3.0 | 0.00 | 0.20 | 0.20 | 98 | 1016.8 |
| 20260903154559 | 63 | 0 | 0.0 | 3.0 | 0.00 | 0.20 | 0.20 | 99 | 1016.8 |
| 20260903154020 | 63 | 0 | 0.0 | 2.0 | 0.00 | 0.20 | 0.20 | 99 | 1017.0 |
| 20260903153520 | 63 | 360 | 0.0 | 3.0 | 0.00 | 0.20 | 0.20 | 99 | 1016.8 |
| 20260903153036 | 62 | 0 | 0.0 | 6.0 | 0.00 | 0.20 | 0.20 | 99 | 1017.0 |
| 20260903152518 | 62 | 0 | 1.0 | 6.0 | 0.00 | 0.20 | 0.20 | 99 | 1017.1 |
| 20260903152018 | 62 | 360 | 2.0 | 6.0 | 0.00 | 0.20 | 0.20 | 99 | 1017.1 |
| 20260903151539 | 62 | 360 | 1.0 | 6.0 | 0.00 | 0.20 | 0.20 | 99 | 1017.1 |
| 20260903151018 | 62 | 0 | 1.0 | 6.0 | 0.00 | 0.20 | 0.20 | 99 | 1017.2 |
| 20260903150519 | 62 | 360 | 2.0 | 6.0 | 0.00 | 0.20 | 0.20 | 99 | 1017.2 |
| 20260903150038 | 62 | 360 | 1.0 | 5.0 | 0.00 | 0.20 | 0.20 | 98 | 1017.3 |
| 20260903145524 | 62 | 360 | 0.0 | 4.0 | 0.00 | 0.20 | 0.20 | 98 | 1017.4 |
| 20260903145020 | 62 | 360 | 0.0 | 4.0 | 0.00 | 0.20 | 0.20 | 98 | 1017.5 |
| 20260903144536 | 62 | 360 | 0.0 | 4.0 | 0.00 | 0.20 | 0.20 | 98 | 1017.6 |
| 20260903144026 | 62 | 360 | 1.0 | 4.0 | 0.00 | 0.20 | 0.20 | 99 | 1017.5 |
| 20260903143520 | 62 | 360 | 0.0 | 4.0 | 0.00 | 0.20 | 0.20 | 99 | 1017.5 |
| 20260903143045 | 61 | 360 | 1.0 | 4.0 | 0.00 | 0.20 | 0.20 | 99 | 1017.6 |
| 20260903142522 | 61 | 360 | 0.0 | 3.0 | 0.01 | 0.20 | 0.20 | 98 | 1017.6 |
| 20260903142021 | 61 | 360 | 0.0 | 3.0 | 0.01 | 0.20 | 0.20 | 98 | 1017.7 |
| 20260903141552 | 61 | 0 | 0.0 | 3.0 | 0.01 | 0.20 | 0.20 | 98 | 1017.7 |
| 20260903141017 | 61 | 360 | 0.0 | 3.0 | 0.01 | 0.20 | 0.20 | 98 | 1017.7 |
| 20260903140518 | 61 | 0 | 1.0 | 5.0 | 0.01 | 0.20 | 0.20 | 98 | 1017.7 |
| 20260903140039 | 61 | 360 | 1.0 | 5.0 | 0.01 | 0.20 | 0.20 | 98 | 1017.6 |
| 20260903135517 | 61 | 360 | 1.0 | 5.0 | 0.01 | 0.20 | 0.20 | 98 | 1017.6 |
| 20260903135018 | 61 | 0 | 0.0 | 2.0 | 0.01 | 0.20 | 0.20 | 99 | 1017.7 |
| 20260903134537 | 61 | 0 | 0.0 | 6.0 | 0.01 | 0.20 | 0.20 | 99 | 1017.8 |
| 20260903134018 | 61 | 360 | 1.0 | 6.0 | 0.01 | 0.20 | 0.20 | 99 | 1017.7 |
| 20260903133521 | 61 | 360 | 2.0 | 6.0 | 0.01 | 0.20 | 0.20 | 98 | 1017.6 |
| 20260903133036 | 60 | 0 | 2.0 | 5.0 | 0.01 | 0.20 | 0.20 | 98 | 1017.6 |
| 20260903132520 | 60 | 360 | 2.0 | 5.0 | 0.00 | 0.19 | 0.19 | 98 | 1017.7 |
| 20260903132019 | 60 | 360 | 1.0 | 5.0 | 0.00 | 0.19 | 0.19 | 98 | 1017.7 |
| 20260903131543 | 60 | 360 | 2.0 | 5.0 | 0.00 | 0.19 | 0.19 | 98 | 1017.7 |
| 20260903131018 | 60 | 360 | 2.0 | 5.0 | 0.00 | 0.19 | 0.19 | 99 | 1017.8 |
| 20260903130518 | 60 | 360 | 1.0 | 5.0 | 0.00 | 0.19 | 0.19 | 99 | 1017.7 |
| 20260903130039 | 60 | 0 | 1.0 | 5.0 | 0.01 | 0.19 | 0.19 | 98 | 1017.9 |
| 20260903125519 | 60 | 360 | 1.0 | 8.0 | 0.01 | 0.19 | 0.19 | 98 | 1018.1 |
| 20260903125017 | 60 | 360 | 2.0 | 8.0 | 0.01 | 0.19 | 0.19 | 98 | 1018.1 |
| 20260903124541 | 60 | 360 | 2.0 | 6.0 | 0.01 | 0.19 | 0.19 | 98 | 1018.1 |
| 20260903124018 | 60 | 360 | 2.0 | 6.0 | 0.01 | 0.19 | 0.19 | 98 | 1018.3 |
| 20260903123519 | 59 | 360 | 3.0 | 6.0 | 0.01 | 0.19 | 0.19 | 98 | 1018.3 |
| 20260903123039 | 59 | 0 | 2.0 | 8.0 | 0.02 | 0.19 | 0.19 | 98 | 1018.3 |
| 20260903122521 | 59 | 360 | 2.0 | 8.0 | 0.02 | 0.19 | 0.19 | 98 | 1018.3 |
| 20260903122020 | 59 | 360 | 2.0 | 6.0 | 0.02 | 0.19 | 0.19 | 98 | 1018.2 |
| 20260903121535 | 59 | 360 | 2.0 | 5.0 | 0.02 | 0.19 | 0.19 | 98 | 1018.3 |
| 20260903121016 | 59 | 360 | 1.0 | 4.0 | 0.03 | 0.19 | 0.19 | 98 | 1018.4 |
| 20260903120518 | 59 | 360 | 1.0 | 5.0 | 0.03 | 0.19 | 0.19 | 98 | 1018.5 |
| 20260903120034 | 59 | 0 | 1.0 | 5.0 | 0.03 | 0.18 | 0.18 | 98 | 1018.5 |
| 20260903115523 | 59 | 360 | 0.0 | 6.0 | 0.03 | 0.18 | 0.18 | 98 | 1018.5 |
| 20260903115017 | 59 | 360 | 2.0 | 6.0 | 0.04 | 0.18 | 0.18 | 98 | 1018.6 |
| 20260903114538 | 59 | 0 | 2.0 | 6.0 | 0.04 | 0.18 | 0.18 | 98 | 1018.6 |
| 20260903114019 | 59 | 0 | 1.0 | 6.0 | 0.04 | 0.18 | 0.18 | 98 | 1018.7 |
| 20260903113519 | 58 | 0 | 2.0 | 6.0 | 0.03 | 0.17 | 0.17 | 98 | 1018.7 |
| 20260903113034 | 58 | 360 | 1.0 | 6.0 | 0.03 | 0.17 | 0.17 | 98 | 1018.7 |
| 20260903112519 | 58 | 360 | 0.0 | 4.0 | 0.03 | 0.17 | 0.17 | 98 | 1018.6 |
| 20260903112023 | 58 | 360 | 0.0 | 5.0 | 0.03 | 0.17 | 0.17 | 98 | 1018.6 |
| 20260903111539 | 58 | 360 | 1.0 | 5.0 | 0.03 | 0.17 | 0.17 | 98 | 1018.5 |
| 20260903111019 | 58 | 360 | 1.0 | 5.0 | 0.02 | 0.16 | 0.16 | 98 | 1018.5 |
| 20260903110516 | 58 | 0 | 2.0 | 6.0 | 0.02 | 0.16 | 0.16 | 98 | 1018.5 |
| 20260903110043 | 58 | 360 | 1.0 | 6.0 | 0.01 | 0.15 | 0.15 | 98 | 1018.6 |
| 20260903105516 | 58 | 360 | 1.0 | 6.0 | 0.00 | 0.14 | 0.14 | 98 | 1018.6 |
| 20260903105020 | 58 | 360 | 1.0 | 8.0 | 0.00 | 0.14 | 0.14 | 98 | 1018.6 |
| 20260903104540 | 58 | 360 | 2.0 | 9.0 | 0.00 | 0.14 | 0.14 | 98 | 1018.5 |
| 20260903104020 | 58 | 360 | 3.0 | 9.0 | 0.00 | 0.14 | 0.14 | 98 | 1018.4 |
| 20260903103520 | 58 | 0 | 3.0 | 9.0 | 0.00 | 0.14 | 0.14 | 98 | 1018.3 |
| 20260903103043 | 58 | 0 | 3.0 | 8.0 | 0.01 | 0.14 | 0.14 | 98 | 1018.2 |
| 20260903102517 | 58 | 360 | 2.0 | 8.0 | 0.01 | 0.14 | 0.14 | 98 | 1018.3 |
| 20260903102017 | 58 | 360 | 3.0 | 10.0 | 0.01 | 0.14 | 0.14 | 98 | 1018.4 |
| 20260903101540 | 58 | 360 | 3.0 | 10.0 | 0.01 | 0.14 | 0.14 | 98 | 1018.4 |
| 20260903101018 | 58 | 360 | 3.0 | 9.0 | 0.01 | 0.14 | 0.14 | 98 | 1018.5 |
| 20260903100517 | 58 | 360 | 4.0 | 6.0 | 0.01 | 0.14 | 0.14 | 98 | 1018.5 |
| 20260903100035 | 58 | 360 | 1.0 | 6.0 | 0.01 | 0.14 | 0.14 | 98 | 1018.6 |
| 20260903095516 | 58 | 360 | 2.0 | 8.0 | 0.01 | 0.14 | 0.14 | 98 | 1018.7 |
| 20260903095017 | 58 | 360 | 2.0 | 8.0 | 0.01 | 0.14 | 0.14 | 98 | 1018.7 |
| 20260903094534 | 58 | 0 | 1.0 | 6.0 | 0.01 | 0.14 | 0.14 | 98 | 1018.8 |
| 20260903094019 | 58 | 360 | 1.0 | 6.0 | 0.01 | 0.14 | 0.14 | 98 | 1018.8 |
| 20260903093518 | 58 | 0 | 1.0 | 8.0 | 0.01 | 0.14 | 0.14 | 98 | 1018.9 |
| 20260903093035 | 58 | 360 | 1.0 | 9.0 | 0.00 | 0.13 | 0.13 | 98 | 1018.9 |
| 20260903092522 | 58 | 360 | 2.0 | 9.0 | 0.08 | 0.13 | 0.13 | 98 | 1019.1 |
| 20260903092017 | 59 | 360 | 2.0 | 10.0 | 0.11 | 0.13 | 0.13 | 98 | 1019.2 |
| 20260903091534 | 59 | 360 | 3.0 | 10.0 | 0.12 | 0.13 | 0.13 | 97 | 1019.3 |
| 20260903091016 | 60 | 360 | 3.0 | 10.0 | 0.13 | 0.13 | 0.13 | 98 | 1019.3 |
| 20260903090518 | 60 | 360 | 3.0 | 10.0 | 0.13 | 0.13 | 0.13 | 98 | 1019.1 |
| 20260903090035 | 60 | 360 | 2.0 | 9.0 | 0.13 | 0.13 | 0.13 | 98 | 1019.3 |
| 20260903085518 | 60 | 0 | 1.0 | 6.0 | 0.13 | 0.13 | 0.13 | 98 | 1019.3 |
| 20260903085017 | 60 | 0 | 0.0 | 6.0 | 0.13 | 0.13 | 0.13 | 98 | 1019.4 |
| 20260903084535 | 60 | 0 | 1.0 | 11.0 | 0.13 | 0.13 | 0.13 | 98 | 1019.4 |
| 20260903084020 | 60 | 360 | 1.0 | 11.0 | 0.13 | 0.13 | 0.13 | 98 | 1019.3 |
| 20260903083518 | 60 | 360 | 2.0 | 11.0 | 0.13 | 0.13 | 0.13 | 98 | 1019.1 |
| 20260903083038 | 61 | 0 | 0.0 | 1.0 | 0.13 | 0.13 | 0.13 | 98 | 1019.4 |
| 20260903082519 | 60 | 0 | 0.0 | 2.0 | 0.04 | 0.04 | 0.04 | 98 | 1019.5 |
| 20260903082020 | 60 | 0 | 0.0 | 6.0 | 0.02 | 0.02 | 0.02 | 98 | 1019.5 |
| 20260903081534 | 60 | 360 | 0.0 | 6.0 | 0.01 | 0.01 | 0.01 | 98 | 1019.4 |
| 20260903081016 | 60 | 360 | 1.0 | 8.0 | 0.00 | 0.00 | 0.00 | 98 | 1019.3 |
| 20260903080519 | 60 | 0 | 2.0 | 8.0 | 0.00 | 0.00 | 0.00 | 98 | 1019.4 |
| 20260903080039 | 60 | 0 | 2.0 | 8.0 | 0.00 | 0.00 | 0.00 | 98 | 1019.3 |
| 20260903075520 | 60 | 360 | 2.0 | 8.0 | 0.00 | 0.00 | 0.00 | 98 | 1019.1 |
| 20260903075019 | 60 | 0 | 2.0 | 8.0 | 0.00 | 0.00 | 0.00 | 98 | 1019.2 |
| 20260903074534 | 60 | 360 | 3.0 | 11.0 | 0.00 | 0.00 | 0.00 | 98 | 1019.2 |
| 20260903074017 | 60 | 360 | 4.0 | 11.0 | 0.00 | 0.00 | 0.00 | 98 | 1019.1 |
| 20260903073519 | 60 | 360 | 2.0 | 10.0 | 0.00 | 0.00 | 0.00 | 98 | 1019.1 |
| 20260903073039 | 60 | 360 | 3.0 | 9.0 | 0.00 | 0.00 | 0.00 | 98 | 1019.1 |
| 20260903072518 | 60 | 360 | 2.0 | 9.0 | 0.00 | 0.00 | 0.00 | 98 | 1019.2 |
| 20260903072020 | 60 | 0 | 4.0 | 9.0 | 0.00 | 0.00 | 0.00 | 98 | 1019.3 |
| 20260903071536 | 60 | 360 | 3.0 | 8.0 | 0.00 | 0.00 | 0.00 | 98 | 1019.4 |
| 20260903071016 | 60 | 360 | 3.0 | 11.0 | 0.00 | 0.00 | 0.00 | 98 | 1019.5 |
| 20260903070517 | 60 | 360 | 3.0 | 11.0 | 0.00 | 0.00 | 0.00 | 98 | 1019.5 |
| 20260903070035 | 60 | 360 | 3.0 | 11.0 | 0.00 | 0.00 | 0.00 | 98 | 1019.6 |
| 20260903065518 | 60 | 0 | 1.0 | 10.0 | 0.00 | 0.00 | 0.00 | 98 | 1019.7 |
| 20260903065017 | 60 | 360 | 2.0 | 10.0 | 0.00 | 0.00 | 0.00 | 98 | 1019.7 |
| 20260903064539 | 60 | 360 | 5.0 | 10.0 | 0.00 | 0.00 | 0.00 | 98 | 1019.7 |
| 20260903064019 | 60 | 360 | 4.0 | 10.0 | 0.00 | 0.00 | 0.00 | 98 | 1019.8 |
| 20260903063519 | 60 | 360 | 4.0 | 10.0 | 0.00 | 0.00 | 0.00 | 98 | 1020.0 |
| 20260903063105 | 60 | 360 | 2.0 | 10.0 | 0.00 | 0.00 | 0.00 | 98 | 1020.3 |
| 20260903062518 | 60 | 0 | 3.0 | 10.0 | 0.00 | 0.00 | 0.00 | 98 | 1020.3 |
| 20260903062017 | 60 | 360 | 4.0 | 10.0 | 0.00 | 0.00 | 0.00 | 98 | 1020.3 |
| 20260903061536 | 60 | 360 | 4.0 | 9.0 | 0.00 | 0.00 | 0.00 | 98 | 1020.6 |
| 20260903061017 | 60 | 360 | 3.0 | 9.0 | 0.00 | 0.00 | 0.00 | 98 | 1020.7 |
| 20260903060516 | 60 | 360 | 1.0 | 6.0 | 0.00 | 0.00 | 0.00 | 98 | 1020.9 |
| 20260903060034 | 60 | 360 | 1.0 | 6.0 | 0.00 | 0.00 | 0.00 | 98 | 1021.0 |
| 20260903055521 | 60 | 360 | 2.0 | 9.0 | 0.00 | 0.00 | 0.00 | 98 | 1020.9 |
| 20260903055021 | 60 | 0 | 3.0 | 9.0 | 0.00 | 0.00 | 0.00 | 98 | 1020.9 |
| 20260903054536 | 60 | 360 | 3.0 | 9.0 | 0.00 | 0.00 | 0.00 | 98 | 1020.9 |
| 20260903054019 | 60 | 0 | 2.0 | 8.0 | 0.00 | 0.00 | 0.00 | 98 | 1020.9 |
| 20260903053520 | 60 | 360 | 3.0 | 8.0 | 0.00 | 0.00 | 0.00 | 98 | 1020.8 |
| 20260903053035 | 60 | 360 | 4.0 | 9.0 | 0.00 | 0.00 | 0.00 | 98 | 1020.8 |
| 20260903052518 | 60 | 360 | 4.0 | 9.0 | 0.00 | 0.00 | 0.00 | 98 | 1020.9 |
| 20260903052017 | 60 | 360 | 4.0 | 9.0 | 0.00 | 0.00 | 0.00 | 98 | 1021.0 |
| 20260903051540 | 60 | 0 | 2.0 | 8.0 | 0.00 | 0.00 | 0.00 | 98 | 1021.1 |
| 20260903051018 | 60 | 360 | 2.0 | 8.0 | 0.00 | 0.00 | 0.00 | 97 | 1021.1 |
| 20260903050517 | 60 | 360 | 4.0 | 8.0 | 0.00 | 0.00 | 0.00 | 97 | 1021.1 |
| 20260903050043 | 60 | 360 | 3.0 | 8.0 | 0.00 | 0.00 | 0.00 | 97 | 1021.1 |
| 20260903045520 | 60 | 360 | 2.0 | 6.0 | 0.00 | 0.00 | 0.00 | 97 | 1021.2 |
| 20260903045019 | 60 | 0 | 2.0 | 8.0 | 0.00 | 0.00 | 0.00 | 97 | 1021.0 |
| 20260903044533 | 60 | 360 | 3.0 | 9.0 | 0.00 | 0.00 | 0.00 | 97 | 1021.0 |
| 20260903044020 | 60 | 360 | 3.0 | 9.0 | 0.00 | 0.00 | 0.00 | 97 | 1021.2 |
| 20260903043520 | 60 | 360 | 2.0 | 9.0 | 0.00 | 0.00 | 0.00 | 97 | 1021.3 |
| 20260903043034 | 60 | 360 | 3.0 | 8.0 | 0.00 | 0.00 | 0.00 | 97 | 1021.4 |
| 20260903042518 | 60 | 360 | 2.0 | 6.0 | 0.00 | 0.00 | 0.00 | 97 | 1021.4 |
| 20260903042016 | 60 | 360 | 3.0 | 6.0 | 0.00 | 0.00 | 0.00 | 97 | 1021.4 |
| 20260903041535 | 60 | 360 | 3.0 | 6.0 | 0.00 | 0.00 | 0.00 | 97 | 1021.5 |
| 20260903041017 | 60 | 360 | 1.0 | 8.0 | 0.00 | 0.00 | 0.00 | 97 | 1021.6 |
| 20260903040516 | 60 | 360 | 2.0 | 8.0 | 0.00 | 0.00 | 0.00 | 97 | 1021.4 |
| 20260903040035 | 60 | 360 | 3.0 | 8.0 | 0.00 | 0.00 | 0.00 | 97 | 1021.5 |
| 20260903035519 | 60 | 360 | 3.0 | 8.0 | 0.00 | 0.00 | 0.00 | 97 | 1021.6 |
| 20260903035019 | 60 | 0 | 0.0 | 8.0 | 0.00 | 0.00 | 0.00 | 97 | 1021.9 |
| 20260903034539 | 59 | 360 | 1.0 | 8.0 | 0.00 | 0.00 | 0.00 | 97 | 1022.0 |
| 20260903034018 | 59 | 0 | 0.0 | 8.0 | 0.00 | 0.00 | 0.00 | 97 | 1022.2 |
| 20260903033517 | 59 | 0 | 1.0 | 6.0 | 0.00 | 0.00 | 0.00 | 97 | 1022.2 |
| 20260903033038 | 59 | 360 | 2.0 | 6.0 | 0.00 | 0.00 | 0.00 | 97 | 1022.3 |
| 20260903032521 | 59 | 0 | 1.0 | 6.0 | 0.00 | 0.00 | 0.00 | 97 | 1022.5 |
| 20260903032018 | 59 | 360 | 1.0 | 6.0 | 0.00 | 0.00 | 0.00 | 97 | 1022.5 |
| 20260903031535 | 59 | 360 | 2.0 | 6.0 | 0.00 | 0.00 | 0.00 | 97 | 1022.2 |
| 20260903031017 | 59 | 360 | 1.0 | 6.0 | 0.00 | 0.00 | 0.00 | 97 | 1022.3 |
| 20260903030520 | 59 | 0 | 1.0 | 8.0 | 0.00 | 0.00 | 0.00 | 96 | 1022.4 |
| 20260903030035 | 59 | 0 | 3.0 | 8.0 | 0.00 | 0.00 | 0.00 | 96 | 1022.3 |
| 20260903025521 | 59 | 360 | 3.0 | 8.0 | 0.00 | 0.00 | 0.00 | 96 | 1022.4 |
| 20260903025018 | 59 | 0 | 1.0 | 8.0 | 0.00 | 0.00 | 0.00 | 96 | 1022.5 |
| 20260903024533 | 59 | 360 | 3.0 | 8.0 | 0.00 | 0.00 | 0.00 | 96 | 1022.2 |
| 20260903024017 | 59 | 360 | 3.0 | 9.0 | 0.00 | 0.00 | 0.00 | 96 | 1022.2 |
| 20260903023516 | 59 | 360 | 3.0 | 9.0 | 0.00 | 0.00 | 0.00 | 96 | 1022.2 |
| 20260903023038 | 59 | 360 | 3.0 | 9.0 | 0.00 | 0.00 | 0.00 | 96 | 1022.2 |
| 20260903022518 | 59 | 360 | 4.0 | 10.0 | 0.00 | 0.00 | 0.00 | 96 | 1022.3 |
| 20260903022016 | 59 | 360 | 4.0 | 10.0 | 0.00 | 0.00 | 0.00 | 96 | 1022.5 |
| 20260903021536 | 59 | 360 | 3.0 | 8.0 | 0.00 | 0.00 | 0.00 | 95 | 1022.3 |
| 20260903021020 | 59 | 360 | 2.0 | 6.0 | 0.00 | 0.00 | 0.00 | 95 | 1022.4 |
| 20260903020521 | 59 | 360 | 1.0 | 6.0 | 0.00 | 0.00 | 0.00 | 95 | 1022.5 |
| 20260903020033 | 59 | 360 | 2.0 | 8.0 | 0.00 | 0.00 | 0.00 | 95 | 1022.5 |
| 20260903015518 | 59 | 360 | 2.0 | 9.0 | 0.00 | 0.00 | 0.00 | 95 | 1022.5 |
| 20260903015018 | 59 | 360 | 2.0 | 9.0 | 0.00 | 0.00 | 0.00 | 95 | 1022.5 |
| 20260903014536 | 59 | 360 | 3.0 | 9.0 | 0.00 | 0.00 | 0.00 | 94 | 1022.6 |
| 20260903014018 | 59 | 0 | 4.0 | 8.0 | 0.00 | 0.00 | 0.00 | 94 | 1022.6 |
| 20260903013517 | 59 | 360 | 3.0 | 8.0 | 0.00 | 0.00 | 0.00 | 94 | 1022.7 |
| 20260903013036 | 59 | 360 | 2.0 | 9.0 | 0.00 | 0.00 | 0.00 | 94 | 1022.6 |
| 20260903012521 | 59 | 360 | 2.0 | 9.0 | 0.00 | 0.00 | 0.00 | 94 | 1022.6 |
| 20260903012020 | 59 | 0 | 3.0 | 8.0 | 0.00 | 0.00 | 0.00 | 94 | 1022.5 |
| 20260903011554 | 59 | 360 | 3.0 | 11.0 | 0.00 | 0.00 | 0.00 | 94 | 1022.5 |
| 20260903011019 | 59 | 360 | 4.0 | 11.0 | 0.00 | 0.00 | 0.00 | 93 | 1022.4 |
| 20260903010521 | 59 | 360 | 4.0 | 11.0 | 0.00 | 0.00 | 0.00 | 93 | 1022.6 |
| 20260903010035 | 59 | 360 | 4.0 | 10.0 | 0.00 | 0.00 | 0.00 | 93 | 1022.5 |
| 20260903005520 | 59 | 360 | 2.0 | 6.0 | 0.00 | 0.00 | 0.00 | 93 | 1022.6 |
| 20260903005019 | 59 | 360 | 1.0 | 9.0 | 0.00 | 0.00 | 0.00 | 92 | 1022.6 |
| 20260903004536 | 59 | 360 | 3.0 | 12.0 | 0.00 | 0.00 | 0.00 | 92 | 1022.4 |
| 20260903004019 | 59 | 360 | 4.0 | 12.0 | 0.00 | 0.00 | 0.00 | 92 | 1022.1 |
| 20260903003519 | 60 | 360 | 5.0 | 13.0 | 0.00 | 0.00 | 0.00 | 92 | 1022.2 |
| 20260903003035 | 60 | 0 | 5.0 | 13.0 | 0.00 | 0.00 | 0.00 | 91 | 1022.2 |
| 20260903002517 | 60 | 360 | 4.0 | 13.0 | 0.00 | 0.00 | 0.00 | 91 | 1022.2 |
| 20260903002018 | 60 | 360 | 7.0 | 13.0 | 0.00 | 0.00 | 0.00 | 90 | 1022.2 |
| 20260903001536 | 60 | 360 | 3.0 | 12.0 | 0.00 | 0.00 | 0.00 | 90 | 1022.2 |
| 20260903001017 | 60 | 360 | 5.0 | 12.0 | 0.00 | 0.00 | 0.00 | 90 | 1022.2 |
| 20260903000519 | 60 | 360 | 5.0 | 11.0 | 0.00 | 0.00 | 0.00 | 89 | 1022.3 |
| 20260903000034 | 60 | 360 | 5.0 | 11.0 | 0.00 | 0.00 | 0.00 | 89 | 1022.4 |
| 20260902235517 | 60 | 360 | 4.0 | 10.0 | 0.00 | 0.00 | 0.00 | 89 | 1022.5 |
| 20260902235020 | 60 | 0 | 3.0 | 9.0 | 0.00 | 0.00 | 0.00 | 88 | 1022.7 |
| 20260902234540 | 60 | 360 | 3.0 | 8.0 | 0.00 | 0.00 | 0.00 | 88 | 1022.9 |
| 20260902234018 | 61 | 0 | 2.0 | 6.0 | 0.00 | 0.00 | 0.00 | 88 | 1023.0 |
| 20260902233520 | 61 | 360 | 3.0 | 6.0 | 0.00 | 0.00 | 0.00 | 87 | 1023.0 |